• în România
  • Lista ţărilor
  • Pe 7 zile
  • Temperatura apei
  • Hartă satelitară
  • Meteo pe hartă
  • Widget-uri
  • user-avatar
    Intrare

    Meteo pe oră la Ondjiwa

    Astăzi, 18 Ianuarie, Miercuri

    Timp Temperatura Precipitaţii Vânt Presiune Umiditate
    00:00 +24°C° 0,2 mm 2 m/s 665 mmHg 78%
    01:00 +23°C° 0 mm 1 m/s 665 mmHg 81%
    02:00 +23°C° 0,2 mm 1 m/s 665 mmHg 83%
    03:00 +23°C° 0,2 mm 1 m/s 665 mmHg 84%
    04:00 +22°C° 0,2 mm 1 m/s 665 mmHg 86%
    05:00 +22°C° 0,1 mm 1 m/s 665 mmHg 84%
    06:00 +23°C° 0,1 mm 1 m/s 666 mmHg 82%
    07:00 +21°C° 0 mm 0 m/s 666 mmHg 79%
    08:00 +25°C° 0,1 mm 1 m/s 667 mmHg 72%
    09:00 +26°C° 0,1 mm 1 m/s 667 mmHg 66%
    10:00 +28°C° 0,1 mm 2 m/s 667 mmHg 59%
    11:00 +29°C° 0,1 mm 2 m/s 667 mmHg 54%
    12:00 +30°C° 0,1 mm 2 m/s 667 mmHg 49%
    13:00 +30°C° 0 mm 2 m/s 667 mmHg 44%
    14:00 +30°C° 0,1 mm 2 m/s 667 mmHg 47%
    15:00 +29°C° 0,1 mm 2 m/s 666 mmHg 50%
    16:00 +28°C° 0,1 mm 2 m/s 666 mmHg 53%
    17:00 +27°C° 0,1 mm 2 m/s 666 mmHg 58%
    18:00 +27°C° 0,1 mm 2 m/s 666 mmHg 63%
    19:00 +26°C° 0,1 mm 2 m/s 666 mmHg 68%
    20:00 +25°C° 0,3 mm 2 m/s 666 mmHg 73%
    21:00 +24°C° 0,3 mm 2 m/s 667 mmHg 77%
    22:00 +23°C° 0,3 mm 2 m/s 667 mmHg 81%
    23:00 +22°C° 0,6 mm 3 m/s 667 mmHg 82%

    Mâine, 19 Ianuarie, Joi

    Timp Temperatura Precipitaţii Vânt Presiune Umiditate
    00:00 +21°C° 0,6 mm 3 m/s 667 mmHg 84%
    01:00 +21°C° 0,6 mm 3 m/s 666 mmHg 86%
    02:00 +21°C° 0,1 mm 3 m/s 666 mmHg 86%
    03:00 +20°C° 0,1 mm 2 m/s 666 mmHg 86%
    04:00 +21°C° 0,1 mm 1 m/s 666 mmHg 86%
    05:00 +22°C° 0 mm 1 m/s 666 mmHg 84%
    06:00 +22°C° 0 mm 1 m/s 667 mmHg 81%
    07:00 +22°C° 0 mm 1 m/s 667 mmHg 79%
    08:00 +24°C° 0 mm 1 m/s 667 mmHg 70%
    09:00 +27°C° 0 mm 1 m/s 668 mmHg 61%
    10:00 +29°C° 0 mm 1 m/s 668 mmHg 53%
    11:00 +29°C° 0,2 mm 1 m/s 668 mmHg 50%
    12:00 +30°C° 0,2 mm 1 m/s 668 mmHg 47%
    13:00 +31°C° 0,2 mm 1 m/s 668 mmHg 44%
    14:00 +31°C° 0,3 mm 1 m/s 667 mmHg 45%
    15:00 +29°C° 0,3 mm 0 m/s 667 mmHg 45%
    16:00 +28°C° 0,3 mm 0 m/s 666 mmHg 46%
    17:00 +29°C° 1 mm 1 m/s 666 mmHg 53%
    18:00 +28°C° 1 mm 1 m/s 666 mmHg 61%
    19:00 +26°C° 1 mm 2 m/s 666 mmHg 68%
    20:00 +26°C° 1,2 mm 2 m/s 666 mmHg 72%
    21:00 +25°C° 1,2 mm 2 m/s 667 mmHg 76%
    22:00 +24°C° 1,2 mm 2 m/s 667 mmHg 79%
    23:00 +24°C° 0,1 mm 2 m/s 667 mmHg 81%

    Poimâine, 20 Ianuarie, Vineri

    Timp Temperatura Precipitaţii Vânt Presiune Umiditate
    00:00 +22°C° 0,1 mm 3 m/s 667 mmHg 82%
    01:00 +22°C° 0,1 mm 3 m/s 666 mmHg 84%
    02:00 +21°C° 0,1 mm 3 m/s 666 mmHg 84%
    03:00 +21°C° 0,1 mm 3 m/s 666 mmHg 85%
    04:00 +21°C° 0,1 mm 2 m/s 666 mmHg 85%
    05:00 +21°C° 0 mm 2 m/s 666 mmHg 83%
    06:00 +23°C° 0 mm 2 m/s 666 mmHg 81%
    07:00 +23°C° 0 mm 2 m/s 667 mmHg 79%
    08:00 +25°C° 0 mm 2 m/s 667 mmHg 68%
    09:00 +28°C° 0 mm 2 m/s 667 mmHg 58%
    10:00 +30°C° 0 mm 2 m/s 668 mmHg 47%
    11:00 +31°C° 0 mm 2 m/s 668 mmHg 42%
    12:00 +32°C° 0 mm 2 m/s 667 mmHg 37%
    13:00 +34°C° 0 mm 2 m/s 667 mmHg 32%
    14:00 +34°C° 0 mm 2 m/s 666 mmHg 34%
    15:00 +32°C° 0 mm 1 m/s 666 mmHg 36%
    16:00 +32°C° 0 mm 1 m/s 665 mmHg 38%
    17:00 +31°C° 0 mm 1 m/s 665 mmHg 41%
    18:00 +30°C° 0 mm 1 m/s 665 mmHg 44%
    19:00 +29°C° 0 mm 1 m/s 666 mmHg 47%
    20:00 +28°C° 0,3 mm 2 m/s 666 mmHg 53%
    21:00 +27°C° 0,3 mm 2 m/s 666 mmHg 60%
    22:00 +25°C° 0,3 mm 3 m/s 666 mmHg 67%
    23:00 +25°C° 0,3 mm 3 m/s 666 mmHg 70%

    21 Ianuarie, Sâmbătă

    Timp Temperatura Precipitaţii Vânt Presiune Umiditate
    00:00 +24°C° 0,3 mm 3 m/s 666 mmHg 73%
    01:00 +24°C° 0,3 mm 3 m/s 665 mmHg 76%
    02:00 +22°C° 0 mm 3 m/s 665 mmHg 77%
    03:00 +22°C° 0 mm 3 m/s 665 mmHg 78%
    04:00 +21°C° 0 mm 2 m/s 665 mmHg 79%
    05:00 +23°C° 0 mm 2 m/s 665 mmHg 76%
    06:00 +22°C° 0 mm 3 m/s 666 mmHg 74%
    07:00 +22°C° 0 mm 3 m/s 666 mmHg 71%
    08:00 +26°C° 0 mm 2 m/s 667 mmHg 62%
    09:00 +28°C° 0 mm 2 m/s 667 mmHg 52%
    10:00 +30°C° 0 mm 2 m/s 668 mmHg 43%
    11:00 +31°C° 0 mm 2 m/s 667 mmHg 40%
    12:00 +31°C° 0 mm 2 m/s 667 mmHg 38%
    13:00 +32°C° 0 mm 1 m/s 666 mmHg 35%
    14:00 +32°C° 0 mm 1 m/s 666 mmHg 34%
    15:00 +33°C° 0 mm 1 m/s 666 mmHg 32%
    16:00 +33°C° 0 mm 1 m/s 665 mmHg 30%
    17:00 +32°C° 0 mm 1 m/s 665 mmHg 35%
    18:00 +30°C° 0 mm 1 m/s 666 mmHg 40%
    19:00 +29°C° 0 mm 1 m/s 666 mmHg 45%
    20:00 +28°C° 0,2 mm 1 m/s 666 mmHg 48%
    21:00 +27°C° 0,2 mm 1 m/s 666 mmHg 52%
    22:00 +26°C° 0,2 mm 1 m/s 666 mmHg 55%
    23:00 +25°C° 0 mm 2 m/s 666 mmHg 59%

    22 Ianuarie, Duminică

    Timp Temperatura Precipitaţii Vânt Presiune Umiditate
    00:00 +25°C° 0 mm 2 m/s 666 mmHg 63%
    01:00 +24°C° 0 mm 3 m/s 665 mmHg 67%
    02:00 +22°C° 0 mm 3 m/s 665 mmHg 69%
    03:00 +23°C° 0 mm 2 m/s 665 mmHg 71%
    04:00 +21°C° 0 mm 2 m/s 665 mmHg 73%
    05:00 +23°C° 0,1 mm 2 m/s 666 mmHg 71%
    06:00 +23°C° 0,1 mm 2 m/s 666 mmHg 70%
    07:00 +23°C° 0,1 mm 2 m/s 667 mmHg 69%
    08:00 +26°C° 0 mm 2 m/s 667 mmHg 59%
    09:00 +28°C° 0 mm 1 m/s 668 mmHg 49%
    10:00 +31°C° 0 mm 1 m/s 668 mmHg 40%
    11:00 +32°C° 0 mm 1 m/s 668 mmHg 34%
    12:00 +35°C° 0 mm 2 m/s 667 mmHg 29%
    13:00 +36°C° 0 mm 2 m/s 667 mmHg 24%
    14:00 +36°C° 0 mm 2 m/s 667 mmHg 25%
    15:00 +35°C° 0 mm 2 m/s 666 mmHg 26%
    16:00 +35°C° 0 mm 2 m/s 666 mmHg 28%
    17:00 +32°C° 0 mm 2 m/s 666 mmHg 31%
    18:00 +31°C° 0 mm 2 m/s 666 mmHg 35%
    19:00 +29°C° 0 mm 2 m/s 666 mmHg 39%
    20:00 +29°C° 0 mm 1 m/s 666 mmHg 42%
    21:00 +28°C° 0 mm 1 m/s 666 mmHg 45%
    22:00 +27°C° 0 mm 1 m/s 666 mmHg 48%
    23:00 +26°C° 0 mm 1 m/s 666 mmHg 49%

    23 Ianuarie, Luni

    Timp Temperatura Precipitaţii Vânt Presiune Umiditate
    00:00 +26°C° 0 mm 1 m/s 666 mmHg 49%
    01:00 +26°C° 0 mm 2 m/s 666 mmHg 50%
    02:00 +25°C° 0,1 mm 2 m/s 666 mmHg 54%
    03:00 +24°C° 0,1 mm 2 m/s 666 mmHg 59%
    04:00 +23°C° 0,1 mm 2 m/s 666 mmHg 63%
    05:00 +24°C° 0 mm 2 m/s 666 mmHg 61%
    06:00 +24°C° 0 mm 2 m/s 667 mmHg 60%
    07:00 +25°C° 0 mm 1 m/s 668 mmHg 58%
    08:00 +27°C° 0 mm 2 m/s 668 mmHg 49%
    09:00 +30°C° 0 mm 2 m/s 668 mmHg 41%
    10:00 +33°C° 0 mm 3 m/s 669 mmHg 33%
    11:00 +34°C° 0 mm 3 m/s 668 mmHg 30%
    12:00 +35°C° 0 mm 3 m/s 668 mmHg 27%
    13:00 +36°C° 0 mm 3 m/s 667 mmHg 24%
    14:00 +36°C° 0 mm 3 m/s 667 mmHg 26%
    15:00 +35°C° 0 mm 3 m/s 667 mmHg 28%
    16:00 +35°C° 0 mm 3 m/s 666 mmHg 30%
    17:00 +33°C° 0 mm 3 m/s 666 mmHg 35%
    18:00 +31°C° 0 mm 2 m/s 666 mmHg 39%
    19:00 +29°C° 0 mm 2 m/s 666 mmHg 44%
    20:00 +28°C° 1,1 mm 3 m/s 666 mmHg 54%
    21:00 +26°C° 1,1 mm 3 m/s 667 mmHg 65%
    22:00 +25°C° 1,1 mm 4 m/s 667 mmHg 75%
    23:00 +25°C° 1,1 mm 3 m/s 667 mmHg 76%
    Arată mai mult